This is the latest recevied weather packets stored in our database for station/object NO4D. If no packets are shown the sender has not sent any weather packets the latest 10 day(s).
| Time | Temp. | Humidity | Pressure | Rain* | Wind** | Luminosity | Snow |
|---|---|---|---|---|---|---|---|
| 1778010350 | 25.56° C | 40% | 1014.9 hPa | 0 mm | - | 464 W/m² | - |
| 1778010046 | 25.56° C | 40% | 1015.2 hPa | 0 mm | - | 540 W/m² | - |
| 1778009743 | 26.11° C | 39% | 1015.2 hPa | 0 mm | - | 518 W/m² | - |
| 1778009440 | 26.11° C | 40% | 1015.1 hPa | 0 mm | - | 556 W/m² | - |
| 1778009139 | 26.11° C | 39% | 1015.3 hPa | 0 mm | - | 543 W/m² | - |
| 1778008836 | 26.67° C | 40% | 1015.2 hPa | 0 mm | - | 534 W/m² | - |
| 1778008534 | 26.11° C | 39% | 1015.4 hPa | 0 mm | - | 678 W/m² | - |
| 1778008232 | 25.56° C | 40% | 1015.3 hPa | 0 mm | - | 440 W/m² | - |
| 1778007932 | 26.11° C | 39% | 1015.5 hPa | 0 mm | - | 404 W/m² | - |
| 1778007629 | 26.11° C | 41% | 1015.3 hPa | 0 mm | - | 427 W/m² | - |
| 1778007325 | 25° C | 41% | 1015.7 hPa | 0 mm | - | 487 W/m² | - |
| 1778007022 | 25.56° C | 41% | 1015.5 hPa | 0 mm | - | 541 W/m² | - |
| 1778006719 | 25.56° C | 40% | 1015.7 hPa | 0 mm | - | 484 W/m² | - |
| 1778006415 | 26.11° C | 38% | 1015.7 hPa | 0 mm | - | 514 W/m² | - |
| 1778006112 | 25.56° C | 41% | 1015.7 hPa | 0 mm | - | 542 W/m² | - |
| 1778005809 | 25.56° C | 41% | 1015.9 hPa | 0 mm | - | 571 W/m² | - |
| 1778005506 | 26.11° C | 39% | 1016.1 hPa | 0 mm | - | 619 W/m² | - |
| 1778005202 | 25.56° C | 40% | 1016.2 hPa | 0 mm | - | 471 W/m² | - |
| 1778004899 | 25.56° C | 39% | 1016.1 hPa | 0 mm | - | 626 W/m² | - |
| 1778004596 | 25.56° C | 40% | 1016.4 hPa | 0 mm | - | 724 W/m² | - |
| 1778004292 | 25.56° C | 42% | 1016.4 hPa | 0 mm | - | 734 W/m² | - |
| 1778003989 | 25.56° C | 40% | 1016.4 hPa | 0 mm | - | 736 W/m² | - |
| 1778003685 | 25° C | 42% | 1016.4 hPa | 0 mm | - | 785 W/m² | - |
| 1778003382 | 25° C | 41% | 1016.8 hPa | 0 mm | - | 811 W/m² | - |
| 1778003079 | 25° C | 41% | 1016.5 hPa | 0 mm | - | 772 W/m² | - |
* Rain latest hour (hover to see other rain measurements)
** Current wind speed in m/s (hover to see current wind gust speed)